When you browse on this site, cookies collect data to enhance your experience and personalize the content and advertising you see.
Visit our Privacy Policy to learn more. By continuing to use the site, you agree to this use of cookies and data.
  • Em Portugal
  • Lista de países
  • Para 7 dias
  • Temperatura da água
  • Mapa do tempo
  • Widgets de tempo
  • user-avatar
    Iniciar Sessão

    Previsão horária em Folkern

    Hoje, 23 Setembro, Segunda-feira

    Tempo Temperatura Precipitação Vento Pressão Humidade
    00:00 +15°C° 0 mm 5 m/s 750 mmHg 98%
    01:00 +15°C° 0.2 mm 4 m/s 749 mmHg 98%
    02:00 +14°C° 0.2 mm 3 m/s 749 mmHg 97%
    03:00 +14°C° 0.2 mm 3 m/s 749 mmHg 97%
    04:00 +14°C° 0.3 mm 3 m/s 749 mmHg 97%
    05:00 +14°C° 0.3 mm 3 m/s 749 mmHg 96%
    06:00 +14°C° 0 mm 3 m/s 749 mmHg 95%
    07:00 +14°C° 0.2 mm 3 m/s 749 mmHg 94%
    08:00 +16°C° 0.2 mm 3 m/s 749 mmHg 92%
    09:00 +16°C° 0.2 mm 3 m/s 749 mmHg 91%
    10:00 +15°C° 0 mm 5 m/s 749 mmHg 88%
    11:00 +16°C° 0 mm 6 m/s 749 mmHg 85%
    12:00 +16°C° 0 mm 7 m/s 749 mmHg 81%
    13:00 +15°C° 0 mm 7 m/s 749 mmHg 85%
    14:00 +14°C° 0 mm 7 m/s 749 mmHg 89%
    15:00 +14°C° 0 mm 7 m/s 749 mmHg 92%
    16:00 +12°C° 0 mm 8 m/s 749 mmHg 90%
    17:00 +12°C° 0 mm 8 m/s 749 mmHg 87%
    18:00 +12°C° 0 mm 9 m/s 749 mmHg 84%
    19:00 +12°C° 0 mm 9 m/s 748 mmHg 84%
    20:00 +12°C° 0 mm 9 m/s 748 mmHg 83%
    21:00 +11°C° 0 mm 9 m/s 748 mmHg 82%
    22:00 +12°C° 0 mm 8 m/s 747 mmHg 82%
    23:00 +12°C° 0 mm 8 m/s 747 mmHg 81%

    Amanhã, 24 Setembro, Terça-feira

    Tempo Temperatura Precipitação Vento Pressão Humidade
    00:00 +12°C° 0 mm 8 m/s 747 mmHg 80%
    01:00 +12°C° 0 mm 7 m/s 746 mmHg 82%
    02:00 +12°C° 0 mm 7 m/s 746 mmHg 83%
    03:00 +12°C° 0 mm 7 m/s 746 mmHg 85%
    04:00 +12°C° 0.1 mm 7 m/s 746 mmHg 86%
    05:00 +12°C° 0.1 mm 7 m/s 745 mmHg 86%
    06:00 +12°C° 0.1 mm 7 m/s 745 mmHg 87%
    07:00 +12°C° 0.1 mm 7 m/s 745 mmHg 87%
    08:00 +14°C° 0.1 mm 6 m/s 745 mmHg 86%
    09:00 +14°C° 0.1 mm 6 m/s 746 mmHg 85%
    10:00 +16°C° 0 mm 5 m/s 746 mmHg 81%
    11:00 +17°C° 0 mm 5 m/s 746 mmHg 78%
    12:00 +19°C° 0 mm 4 m/s 746 mmHg 74%
    13:00 +19°C° 0 mm 4 m/s 746 mmHg 75%
    14:00 +19°C° 0 mm 3 m/s 746 mmHg 76%
    15:00 +19°C° 0 mm 3 m/s 746 mmHg 77%
    16:00 +18°C° 0 mm 3 m/s 746 mmHg 81%
    17:00 +17°C° 0 mm 3 m/s 746 mmHg 85%
    18:00 +16°C° 0 mm 3 m/s 746 mmHg 89%
    19:00 +14°C° 0 mm 3 m/s 746 mmHg 89%
    20:00 +14°C° 0 mm 3 m/s 746 mmHg 89%
    21:00 +14°C° 0 mm 3 m/s 747 mmHg 89%
    22:00 +14°C° 0 mm 3 m/s 746 mmHg 89%
    23:00 +15°C° 0 mm 2 m/s 746 mmHg 89%

    Depois de amanhã, 25 Setembro, Quarta-feira

    Tempo Temperatura Precipitação Vento Pressão Humidade
    00:00 +15°C° 0 mm 2 m/s 746 mmHg 88%
    01:00 +15°C° 0 mm 1 m/s 746 mmHg 89%
    02:00 +15°C° 0 mm 1 m/s 746 mmHg 90%
    03:00 +14°C° 0 mm 1 m/s 746 mmHg 90%
    04:00 +15°C° 0 mm 1 m/s 746 mmHg 90%
    05:00 +15°C° 0 mm 1 m/s 746 mmHg 90%
    06:00 +15°C° 0 mm 1 m/s 746 mmHg 89%
    07:00 +15°C° 0 mm 1 m/s 746 mmHg 89%
    08:00 +15°C° 0 mm 1 m/s 746 mmHg 89%
    09:00 +15°C° 0 mm 2 m/s 746 mmHg 89%
    10:00 +16°C° 0 mm 2 m/s 746 mmHg 87%
    11:00 +17°C° 0 mm 3 m/s 746 mmHg 85%
    12:00 +17°C° 0 mm 3 m/s 746 mmHg 83%
    13:00 +17°C° 0 mm 4 m/s 746 mmHg 85%
    14:00 +15°C° 0 mm 5 m/s 745 mmHg 87%
    15:00 +15°C° 0 mm 6 m/s 745 mmHg 89%
    16:00 +14°C° 0.1 mm 6 m/s 745 mmHg 90%
    17:00 +14°C° 0.1 mm 7 m/s 744 mmHg 91%
    18:00 +12°C° 0.1 mm 7 m/s 744 mmHg 92%
    19:00 +13°C° 1.7 mm 9 m/s 744 mmHg 93%
    20:00 +13°C° 1.7 mm 10 m/s 744 mmHg 93%
    21:00 +13°C° 1.7 mm 12 m/s 744 mmHg 93%
    22:00 +13°C° 0.9 mm 11 m/s 743 mmHg 93%
    23:00 +13°C° 0.9 mm 10 m/s 743 mmHg 93%

    26 Setembro, Quinta-feira

    Tempo Temperatura Precipitação Vento Pressão Humidade
    00:00 +13°C° 0.9 mm 9 m/s 742 mmHg 92%
    01:00 +13°C° 1.5 mm 9 m/s 742 mmHg 93%
    02:00 +13°C° 1.5 mm 9 m/s 742 mmHg 94%
    03:00 +13°C° 1.5 mm 10 m/s 741 mmHg 95%
    04:00 +12°C° 0.1 mm 9 m/s 741 mmHg 93%
    05:00 +12°C° 0.1 mm 8 m/s 741 mmHg 91%
    06:00 +11°C° 0.1 mm 8 m/s 741 mmHg 89%
    07:00 +11°C° 0.2 mm 8 m/s 741 mmHg 87%
    08:00 +11°C° 0.2 mm 8 m/s 742 mmHg 85%
    09:00 +12°C° 0.2 mm 9 m/s 742 mmHg 83%
    10:00 +12°C° 0.2 mm 9 m/s 742 mmHg 83%
    11:00 +12°C° 0.2 mm 8 m/s 743 mmHg 82%
    12:00 +12°C° 0.2 mm 8 m/s 743 mmHg 82%
    13:00 +12°C° 0.2 mm 8 m/s 743 mmHg 82%
    14:00 +12°C° 0.2 mm 9 m/s 743 mmHg 81%
    15:00 +12°C° 0.2 mm 9 m/s 743 mmHg 81%
    16:00 +12°C° 0.4 mm 9 m/s 743 mmHg 82%
    17:00 +11°C° 0.4 mm 9 m/s 742 mmHg 84%
    18:00 +11°C° 0.4 mm 10 m/s 742 mmHg 85%
    19:00 +11°C° 0.4 mm 10 m/s 742 mmHg 86%
    20:00 +11°C° 0.4 mm 10 m/s 742 mmHg 87%
    21:00 +9°C° 0.4 mm 10 m/s 743 mmHg 88%
    22:00 +9°C° 0.5 mm 10 m/s 743 mmHg 89%
    23:00 +10°C° 0.5 mm 9 m/s 742 mmHg 91%

    27 Setembro, Sexta-feira

    Tempo Temperatura Precipitação Vento Pressão Humidade
    00:00 +11°C° 0.5 mm 9 m/s 742 mmHg 92%
    01:00 +10°C° 0.2 mm 8 m/s 742 mmHg 91%
    02:00 +10°C° 0.2 mm 7 m/s 742 mmHg 90%
    03:00 +10°C° 0.2 mm 7 m/s 741 mmHg 89%
    04:00 +10°C° 1.5 mm 6 m/s 741 mmHg 91%
    05:00 +11°C° 1.5 mm 4 m/s 741 mmHg 93%
    06:00 +11°C° 1.5 mm 3 m/s 740 mmHg 95%
    07:00 +11°C° 2.3 mm 4 m/s 741 mmHg 94%
    08:00 +10°C° 2.3 mm 5 m/s 741 mmHg 93%
    09:00 +10°C° 2.3 mm 5 m/s 741 mmHg 92%
    10:00 +10°C° 0.4 mm 5 m/s 741 mmHg 91%
    11:00 +10°C° 0.4 mm 5 m/s 741 mmHg 89%
    12:00 +11°C° 0.4 mm 4 m/s 742 mmHg 88%
    13:00 +12°C° 0.1 mm 4 m/s 742 mmHg 85%
    14:00 +12°C° 0.1 mm 3 m/s 742 mmHg 82%
    15:00 +13°C° 0.1 mm 3 m/s 742 mmHg 79%
    16:00 +12°C° 0.2 mm 4 m/s 742 mmHg 81%
    17:00 +12°C° 0.2 mm 5 m/s 743 mmHg 84%
    18:00 +10°C° 0.2 mm 6 m/s 743 mmHg 86%
    19:00 +10°C° 0.2 mm 6 m/s 743 mmHg 87%
    20:00 +10°C° 0.2 mm 7 m/s 744 mmHg 87%
    21:00 +9°C° 0.2 mm 7 m/s 744 mmHg 88%
    22:00 +9°C° 0.2 mm 7 m/s 744 mmHg 88%
    23:00 +10°C° 0.2 mm 8 m/s 744 mmHg 89%

    28 Setembro, Sábado

    Tempo Temperatura Precipitação Vento Pressão Humidade
    00:00 +10°C° 0.2 mm 8 m/s 744 mmHg 89%
    01:00 +10°C° 0.1 mm 7 m/s 744 mmHg 89%
    02:00 +10°C° 0.1 mm 7 m/s 744 mmHg 89%
    03:00 +10°C° 0.1 mm 6 m/s 744 mmHg 90%
    04:00 +10°C° 0.1 mm 7 m/s 744 mmHg 90%
    05:00 +9°C° 0.1 mm 7 m/s 744 mmHg 91%
    06:00 +9°C° 0.1 mm 7 m/s 744 mmHg 91%
    07:00 +10°C° 0.2 mm 8 m/s 745 mmHg 90%
    08:00 +10°C° 0.2 mm 8 m/s 745 mmHg 89%
    09:00 +11°C° 0.2 mm 8 m/s 745 mmHg 87%
    10:00 +11°C° 0.1 mm 9 m/s 746 mmHg 86%
    11:00 +11°C° 0.1 mm 9 m/s 746 mmHg 86%
    12:00 +11°C° 0.1 mm 9 m/s 747 mmHg 85%
    13:00 +11°C° 0 mm 9 m/s 747 mmHg 85%
    14:00 +11°C° 0 mm 9 m/s 747 mmHg 85%
    15:00 +11°C° 0 mm 9 m/s 747 mmHg 85%
    16:00 +11°C° 0.1 mm 9 m/s 747 mmHg 85%
    17:00 +10°C° 0.1 mm 8 m/s 747 mmHg 86%
    18:00 +10°C° 0.1 mm 8 m/s 747 mmHg 86%
    19:00 +10°C° 0.1 mm 8 m/s 748 mmHg 87%
    20:00 +10°C° 0.1 mm 8 m/s 748 mmHg 88%
    21:00 +10°C° 0.1 mm 7 m/s 748 mmHg 89%
    22:00 +10°C° 0.1 mm 7 m/s 748 mmHg 89%
    23:00 +10°C° 0.1 mm 7 m/s 748 mmHg 89%
    Mostrar mais